Lid_Strength_Index
12 12 12 12 12 12 12 12 13 12 13 13 13 13 13 13 13 13 13 7 5 4 3 3 3 3 2 2 2 2 1 1 1 2 2 2 2 1 2 2 2 1 1
12 12 12 12 12 13 12 13 13 13 13 13 13 12 13 13 13 13 13 12 6 4 3 3 3 2 2 2 1 1 1 1 1 1 1 1 2 1 2 2 2 1 1
11 12 12 12 12 13 13 13 13 13 13 13 13 13 12 12 12 12 12 13 12 7 4 3 3 2 2 2 2 1 1 1 1 1 1 1 1 1 1 1 2 2 1
11 12 12 12 12 13 13 13 13 13 13 13 13 13 13 13 12 12 12 12 12 12 9 5 3 3 2 2 2 1 1 1 1 0 0 1 1 1 1 1 1 1 2
10 12 12 12 12 12 13 13 13 14 14 13 13 12 12 12 12 11 12 12 12 11 11 8 5 4 3 2 2 2 1 1 1 1 0 0 0 1 1 1 1 1 1
10 11 12 12 12 12 12 13 13 13 13 13 12 12 12 12 12 13 12 11 12 12 12 12 11 10 4 3 3 2 2 1 0 0 0 0 0 0 0 0 0 1 1
10 10 11 12 12 12 12 12 13 13 13 13 13 13 13 14 14 13 13 12 12 11 12 11 11 11 10 5 4 3 2 2 1 1 1 0 0 1 1 0 0 0 1
9 10 11 11 11 12 12 12 13 13 13 13 14 15 15 14 13 12 13 13 13 12 12 11 11 11 11 11 9 5 4 3 2 2 2 1 1 0 1 1 0 0 0
9 10 10 11 11 12 12 12 12 13 13 13 13 13 15 16 15 13 13 13 13 12 12 12 11 11 11 11 9 8 5 4 3 2 2 2 1 1 1 1 1 1 1
10 10 10 11 11 11 12 12 11 12 13 13 13 12 14 14 15 15 13 13 12 12 12 12 11 11 11 11 9 7 5 4 4 3 2 2 2 2 2 1 1 1 1
10 10 10 10 11 11 11 11 12 12 12 13 13 13 14 14 15 15 14 14 13 12 12 11 11 11 10 10 11 9 6 5 4 3 3 2 2 1 1 1 1 1 1
9 9 9 10 10 11 11 11 11 12 12 12 12 12 13 13 14 15 16 15 13 11 11 11 11 11 10 10 8 6 5 4 4 3 3 2 2 1 1 0 0 -0 -0
10 9 9 9 10 10 10 11 11 12 12 12 12 12 12 12 12 13 14 13 14 11 11 11 11 11 10 10 10 6 5 4 4 3 3 2 1 1 1 1 1 0 -0
10 9 8 8 9 9 9 10 11 11 12 12 12 13 12 12 12 11 12 14 13 13 12 12 11 11 11 10 9 5 7 5 4 3 3 2 2 1 1 1 1 1 -0
8 8 8 8 9 9 9 10 10 11 11 11 12 12 12 12 12 11 12 12 13 15 13 12 12 11 10 10 9 8 8 6 4 3 3 2 2 2 1 1 0 -0 -1
9 8 8 9 9 9 10 10 10 10 11 11 11 11 12 12 12 12 12 12 12 12 14 12 12 11 10 9 8 7 8 5 4 3 3 2 2 2 1 0 -1 -1 -1
8 9 9 9 9 10 10 11 11 11 11 11 11 11 11 11 12 12 12 12 12 12 13 10 10 10 11 11 9 9 8 9 8 4 3 2 2 2 0 -0 -1 -1 -0
9 9 9 9 9 9 10 10 11 10 11 11 11 12 11 10 12 12 12 13 13 12 12 12 11 11 11 10 10 10 8 7 8 5 3 2 2 0 -0 -0 -1 -1 -1
9 9 9 9 9 10 10 10 10 11 11 11 11 12 12 12 12 12 12 13 12 11 12 12 12 11 11 11 11 10 10 9 8 5 4 3 1 0 -0 -1 -1 -1 -1
10 10 10 9 9 10 10 10 11 11 11 11 11 11 11 12 12 12 12 12 12 12 12 12 12 11 11 11 11 11 11 10 9 6 5 3 1 -0 -0 -0 -1 -1 -0
9 9 10 10 10 11 10 11 11 11 12 12 11 11 11 10 8 8 9 10 11 12 12 12 12 12 12 12 11 11 12 10 10 9 8 6 5 5 4 2 1 1 1
10 10 10 10 11 10 8 7 10 11 11 11 11 11 11 9 9 7 6 6 6 10 11 12 12 12 12 12 12 11 12 10 9 6 7 5 3 4 4 3 2 1 1
10 10 10 10 10 10 7 6 6 10 10 11 11 11 11 10 10 11 9 7 7 6 7 10 11 12 12 11 9 12 10 9 8 6 5 6 4 4 4 3 1 1 1
10 10 10 10 10 10 6 5 5 9 11 11 11 11 12 11 11 9 10 11 11 10 10 9 10 10 10 7 7 7 7 9 9 7 6 9 8 7 5 4 2 2 2
10 10 10 10 10 10 6 6 7 11 11 11 11 11 11 11 8 7 10 11 11 10 8 6 6 6 7 7 7 10 12 13 13 13 9 9 9 8 7 6 5 3 3
9 9 10 10 9 10 7 6 8 11 12 12 12 11 9 10 7 7 10 11 12 12 12 11 12 11 10 10 8 11 12 14 14 13 9 10 10 9 10 8 7 5 5